This demonstration page uses our WeatherBlox Daily Observations layout. Learn more.

Left ArrowRight Arrow

Hourly Observations for February 7, 2022

Temp ( °F °C ) Dew Point ( °F °C ) Humidity (%) Winds ( mph kmh ) Pressure ( in mb ) Visibility ( mi km ) Precip ( " mm )
12:53 am 00:53 Clear 46 7.8 31 -0.6 56 56 Calm 30.29 1026 10 16 0.00 0.00
1:53 am 01:53 Clear 43 6.1 31 -0.6 63 63 Calm 30.31 1027 10 16 0.00 0.00
2:53 am 02:53 Clear 41 5 31 -0.6 67 67 Calm 30.33 1027 10 16 0.00 0.00
3:53 am 03:53 Clear 38 3.3 30 -1.1 73 73 Calm 30.33 1027 10 16 0.00 0.00
4:53 am 04:53 Clear 37 2.8 29 -1.7 73 73 Calm 30.36 1028 10 16 0.00 0.00
5:53 am 05:53 Clear 37 2.8 29 -1.7 73 73 Calm 30.36 1028 10 16 0.00 0.00
6:53 am 06:53 Clear 35 1.7 28 -2.2 76 76 Calm 30.37 1029 8 13 0.00 0.00
7:53 am 07:53 Sunny 37 2.8 29 -1.7 73 73 Calm 30.39 1029 10 16 0.00 0.00
8:53 am 08:53 Sunny 47 8.3 34 1.1 61 61 Calm 30.39 1029 10 16 0.00 0.00
9:53 am 09:53 Sunny 55 12.8 35 1.7 47 47 Calm 30.39 1029 10 16 0.00 0.00
10:53 am 10:53 Sunny 59 15 36 2.2 42 42 Calm 30.37 1029 10 16 0.00 0.00
11:53 am 11:53 Sunny 63 17.2 35 1.7 35 35 VRB 3 6 30.34 1028 10 16 0.00 0.00
12:53 pm 12:53 Sunny 67 19.4 33 0.6 28 28 S 3 6 30.30 1026 10 16 0.00 0.00
1:53 pm 13:53 Sunny 70 21.1 32 0 25 25 VRB 3 6 30.27 1025 10 16 0.00 0.00
2:53 pm 14:53 Sunny 71 21.7 31 -0.6 23 23 SSE 3 6 30.25 1024 10 16 0.00 0.00
3:53 pm 15:53 Sunny 72 22.2 31 -0.6 22 22 SE 5 7 30.24 1024 10 16 0.00 0.00
4:53 pm 16:53 Sunny 70 21.1 37 2.8 30 30 SE 3 6 30.24 1024 10 16 0.00 0.00
5:53 pm 17:53 Clear 62 16.7 36 2.2 38 38 Calm 30.26 1025 10 16 0.00 0.00
6:53 pm 18:53 Clear 55 12.8 37 2.8 51 51 N 3 6 30.27 1025 10 16 0.00 0.00
7:53 pm 19:53 Clear 52 11.1 37 2.8 57 57 Calm 30.29 1026 10 16 0.00 0.00
8:53 pm 20:53 Clear 51 10.6 36 2.2 56 56 Calm 30.30 1026 10 16 0.00 0.00
9:53 pm 21:53 Clear 47 8.3 36 2.2 66 66 Calm 30.32 1027 10 16 0.00 0.00
10:53 pm 22:53 Clear 46 7.8 35 1.7 66 66 Calm 30.33 1027 10 16 0.00 0.00
11:53 pm 23:53 Clear 45 7.2 35 1.7 68 68 Calm 30.33 1027 10 16 0.00 0.00

Powered by AerisWeather